GW5561 Weather Reports


time (UTC)temp
C
wind
direction
speed
KPH
gust
KPH
rain 1hr
cm
rain 24hr
cm
rain mn
cm
humidity
%
barometer
mb
20260510231100 18 79 0.0 0.0 0.00 0.00 0.00 58 1013.9
20260510230555 18 79 0.0 0.0 0.00 0.00 0.00 58 1014.0
20260510230052 19 127 0.0 1.6 0.00 0.00 0.00 62 1013.9
20260510225548 19 69 0.0 0.0 0.00 0.00 0.00 57 1014.0
20260510225044 20 69 0.0 0.0 0.00 0.00 0.00 63 1013.9
20260510224540 20 69 0.0 0.0 0.00 0.00 0.00 59 1014.1
20260510224037 20 64 0.0 0.0 0.00 0.00 0.00 51 1013.7
20260510223535 20 77 0.0 0.0 0.00 0.00 0.00 52 1014.0
20260510223032 20 118 1.6 3.2 0.00 0.00 0.00 49 1013.8
20260510222529 20 73 0.0 1.6 0.00 0.00 0.00 49 1013.8
20260510222026 20 56 1.6 4.8 0.00 0.00 0.00 45 1013.7
20260510221521 21 39 1.6 3.2 0.00 0.00 0.00 45 1013.7
20260510221017 21 65 0.0 1.6 0.00 0.00 0.00 46 1013.5
20260510220514 21 336 1.6 8.0 0.00 0.00 0.00 44 1013.4
20260510220010 21 148 1.6 4.8 0.00 0.00 0.00 44 1013.5
20260510215508 21 107 1.6 3.2 0.00 0.00 0.00 47 1013.1
20260510215005 21 118 0.0 3.2 0.00 0.00 0.00 47 1013.3
20260510214502 22 85 0.0 0.0 0.00 0.00 0.00 51 1013.1
20260510213958 22 11 1.6 4.8 0.00 0.00 0.00 47 1013.4
20260510213455 22 21 4.8 8.0 0.00 0.00 0.00 45 1013.2
20260510212952 22 63 0.0 3.2 0.00 0.00 0.00 47 1013.6
20260510212449 22 120 0.0 3.2 0.00 0.00 0.00 47 1013.5
20260510211945 22 66 0.0 3.2 0.00 0.00 0.00 47 1013.5
20260510211443 22 182 1.6 3.2 0.00 0.00 0.00 47 1013.7
20260510210942 22 26 1.6 4.8 0.00 0.00 0.00 44 1013.5
20260510210438 22 147 1.6 1.6 0.00 0.00 0.00 50 1013.3
20260510205938 22 71 0.0 3.2 0.00 0.00 0.00 49 1013.4
20260510205433 22 60 0.0 0.0 0.00 0.00 0.00 46 1013.5
20260510204929 23 47 1.6 8.0 0.00 0.00 0.00 44 1013.5
20260510204426 22 76 4.8 9.7 0.00 0.00 0.00 46 1013.6
20260510203922 22 74 0.0 4.8 0.00 0.00 0.00 46 1013.5
20260510203420 22 21 3.2 9.7 0.00 0.00 0.00 45 1013.7
20260510202920 22 155 3.2 4.8 0.00 0.00 0.00 45 1013.5
20260510202416 22 55 3.2 11.3 0.00 0.00 0.00 47 1013.6
20260510201913 22 81 0.0 4.8 0.00 0.00 0.00 44 1013.6
20260510201410 22 51 1.6 4.8 0.00 0.00 0.00 44 1013.7
20260510200906 22 81 1.6 3.2 0.00 0.00 0.00 46 1013.9
20260510200406 22 25 1.6 9.7 0.00 0.00 0.00 45 1013.9
20260510195900 22 78 0.0 1.6 0.00 0.00 0.00 45 1013.9
20260510195357 22 33 3.2 3.2 0.00 0.00 0.00 46 1014.0
20260510194851 22 31 1.6 1.6 0.00 0.00 0.00 50 1014.0
20260510194349 22 192 4.8 8.0 0.00 0.00 0.00 45 1014.0
20260510193844 22 33 3.2 9.7 0.00 0.00 0.00 48 1013.7
20260510193339 22 27 3.2 8.0 0.00 0.00 0.00 46 1014.2
20260510192835 22 19 6.4 9.7 0.00 0.00 0.00 44 1013.9
20260510192331 22 29 1.6 3.2 0.00 0.00 0.00 47 1014.0
20260510191827 23 165 3.2 3.2 0.00 0.00 0.00 50 1014.0
20260510191323 23 65 1.6 3.2 0.00 0.00 0.00 43 1014.2
20260510190821 22 160 1.6 3.2 0.00 0.00 0.00 44 1014.1
20260510190319 22 70 0.0 3.2 0.00 0.00 0.00 47 1013.9
20260510185815 22 60 1.6 3.2 0.00 0.00 0.00 47 1014.1
20260510185313 22 69 0.0 3.2 0.00 0.00 0.00 48 1014.0
20260510184810 22 82 0.0 1.6 0.00 0.00 0.00 49 1013.9
20260510184307 22 72 0.0 3.2 0.00 0.00 0.00 47 1013.9
20260510183806 22 59 0.0 3.2 0.00 0.00 0.00 45 1014.0
20260510183302 22 111 0.0 3.2 0.00 0.00 0.00 46 1014.0
20260510182758 22 153 6.4 8.0 0.00 0.00 0.00 46 1014.0
20260510182254 22 48 3.2 8.0 0.00 0.00 0.00 48 1013.8
20260510181751 22 75 3.2 9.7 0.00 0.00 0.00 44 1013.7
20260510181248 22 65 1.6 4.8 0.00 0.00 0.00 48 1013.9
20260510180744 22 136 3.2 8.0 0.00 0.00 0.00 43 1013.8
20260510180242 22 10 9.7 11.3 0.00 0.00 0.00 45 1013.7
20260510175738 22 257 1.6 4.8 0.00 0.00 0.00 47 1013.5
20260510175234 22 97 0.0 3.2 0.00 0.00 0.00 49 1013.7
20260510174731 21 63 0.0 3.2 0.00 0.00 0.00 49 1013.4
20260510174228 21 129 1.6 9.7 0.00 0.00 0.00 48 1013.3
20260510173724 22 197 4.8 8.0 0.00 0.00 0.00 50 1013.6
20260510173220 21 337 3.2 9.7 0.00 0.00 0.00 48 1013.7
20260510172715 21 323 4.8 9.7 0.00 0.00 0.00 48 1013.5
20260510172212 22 22 3.2 11.3 0.00 0.00 0.00 49 1013.5
20260510171709 21 80 0.0 8.0 0.00 0.00 0.00 49 1013.8
20260510171206 21 97 0.0 9.7 0.00 0.00 0.00 52 1013.5
20260510170703 21 123 1.6 9.7 0.00 0.00 0.00 50 1013.7
20260510170159 21 176 6.4 8.0 0.00 0.00 0.00 50 1013.5
20260510165655 21 35 0.0 3.2 0.00 0.00 0.00 58 1013.5
20260510165151 21 161 4.8 8.0 0.00 0.00 0.00 50 1013.4
20260510164649 21 65 0.0 8.0 0.00 0.00 0.00 54 1013.4
20260510164146 21 35 1.6 3.2 0.00 0.00 0.00 56 1013.3
20260510163641 21 247 6.4 11.3 0.00 0.00 0.00 60 1013.3
20260510163138 20 58 1.6 4.8 0.00 0.00 0.00 59 1013.1
20260510162637 20 53 4.8 8.0 0.00 0.00 0.00 56 1013.2
20260510162134 20 30 3.2 8.0 0.00 0.00 0.00 59 1013.2
20260510161630 20 65 0.0 4.8 0.00 0.00 0.00 62 1013.1
20260510161127 20 188 4.8 11.3 0.00 0.00 0.00 58 1012.8
20260510160624 20 15 3.2 3.2 0.00 0.00 0.00 60 1012.9
20260510160124 20 46 1.6 4.8 0.00 0.00 0.00 62 1012.9
20260510155620 20 59 4.8 11.3 0.00 0.00 0.00 62 1013.0
20260510155116 20 359 4.8 9.7 0.00 0.00 0.00 64 1012.9
20260510154612 19 320 1.6 8.0 0.00 0.00 0.00 65 1012.9
20260510154108 19 69 0.0 3.2 0.00 0.00 0.00 66 1012.8
20260510153603 19 146 1.6 8.0 0.00 0.00 0.00 67 1012.9
20260510153100 19 41 1.6 3.2 0.00 0.00 0.00 67 1012.8
20260510152556 19 52 1.6 1.6 0.00 0.00 0.00 67 1013.0
20260510152053 19 72 1.6 3.2 0.00 0.00 0.00 70 1013.0
20260510151550 19 56 1.6 11.3 0.00 0.00 0.00 67 1013.0
20260510151048 19 57 0.0 1.6 0.00 0.00 0.00 68 1012.9
20260510150547 19 7 3.2 4.8 0.00 0.00 0.00 67 1012.7
20260510150044 19 63 3.2 3.2 0.00 0.00 0.00 65 1012.9
20260510145541 20 294 1.6 3.2 0.00 0.00 0.00 67 1012.8
20260510145037 19 81 0.0 8.0 0.00 0.00 0.00 68 1012.8
20260510144534 19 96 0.0 9.7 0.00 0.00 0.00 70 1012.7
20260510144030 19 165 3.2 4.8 0.00 0.00 0.00 69 1012.9
20260510143525 19 151 1.6 4.8 0.00 0.00 0.00 68 1012.7
20260510143022 20 180 8.0 9.7 0.00 0.00 0.00 67 1012.7
20260510142519 20 56 0.0 1.6 0.00 0.00 0.00 67 1012.5
20260510142015 20 78 1.6 8.0 0.00 0.00 0.00 66 1012.8
20260510141512 20 61 0.0 8.0 0.00 0.00 0.00 68 1012.3
20260510141010 19 159 4.8 4.8 0.00 0.00 0.00 69 1012.3
20260510140506 18 333 4.8 9.7 0.00 0.00 0.00 68 1012.3
20260510140006 18 178 3.2 8.0 0.00 0.00 0.00 72 1012.4
20260510135501 18 305 4.8 8.0 0.00 0.00 0.00 69 1012.2
20260510134958 18 126 6.4 8.0 0.00 0.00 0.00 69 1011.9
20260510134455 18 74 1.6 8.0 0.00 0.00 0.00 70 1011.8
20260510133952 18 40 0.0 3.2 0.00 0.00 0.00 73 1011.6
20260510133448 17 173 4.8 8.0 0.00 0.00 0.00 71 1011.7
20260510132944 17 84 0.0 9.7 0.00 0.00 0.00 78 1011.4
20260510132441 17 80 1.6 4.8 0.00 0.00 0.00 79 1011.2
20260510131938 17 125 3.2 3.2 0.00 0.00 0.00 80 1011.1
20260510131435 16 118 0.0 1.6 0.00 0.00 0.00 85 1011.2
20260510130932 16 75 0.0 1.6 0.00 0.00 0.00 87 1011.3
20260510130429 16 79 0.0 1.6 0.00 0.00 0.00 89 1011.2
20260510125926 15 89 0.0 0.0 0.00 0.00 0.00 89 1011.0
20260510125421 15 91 0.0 0.0 0.00 0.00 0.00 90 1011.0
20260510124919 15 91 0.0 1.6 0.00 0.00 0.00 91 1011.1
20260510124415 14 80 0.0 4.8 0.00 0.00 0.00 93 1011.0
20260510123912 13 97 0.0 1.6 0.00 0.00 0.00 94 1011.1
20260510123407 13 83 0.0 3.2 0.00 0.00 0.00 97 1011.1
20260510122904 13 80 0.0 1.6 0.00 0.00 0.00 98 1011.0
20260510122359 12 82 0.0 0.0 0.00 0.00 0.00 99 1011.0
20260510121856 12 76 1.6 1.6 0.00 0.00 0.00 99 1010.7
20260510121354 12 89 0.0 0.0 0.00 0.00 0.00 99 1010.8
20260510120851 12 76 0.0 1.6 0.00 0.00 0.00 99 1010.7
20260510120348 11 82 0.0 0.0 0.00 0.00 0.00 99 1010.7
20260510115843 11 82 0.0 0.0 0.00 0.00 0.00 99 1010.4
20260510115341 11 76 0.0 0.0 0.00 0.00 0.00 99 1010.5
20260510114836 11 77 0.0 0.0 0.00 0.00 0.00 99 1010.5
20260510114333 11 76 0.0 0.0 0.00 0.00 0.00 99 1010.6
20260510113833 11 82 0.0 0.0 0.00 0.00 0.00 99 1010.5
20260510113330 11 83 0.0 0.0 0.00 0.00 0.00 99 1010.5
20260510112827 11 82 0.0 0.0 0.00 0.00 0.00 99 1010.6
20260510112324 11 82 0.0 0.0 0.00 0.00 0.00 99 1010.5
20260510111820 11 89 0.0 0.0 0.00 0.00 0.00 99 1010.3
20260510111317 11 95 0.0 0.0 0.00 0.00 0.00 99 1010.2
20260510110817 11 76 0.0 0.0 0.00 0.00 0.00 99 1010.0
20260510110315 11 76 0.0 0.0 0.00 0.00 0.00 99 1009.9
20260510105810 11 76 0.0 0.0 0.00 0.00 0.00 99 1010.0
20260510105310 11 76 0.0 0.0 0.00 0.00 0.00 99 1009.9
20260510104807 11 76 0.0 0.0 0.00 0.00 0.00 99 1009.9
20260510104304 11 76 0.0 0.0 0.00 0.00 0.00 99 1009.6
20260510103800 11 76 0.0 0.0 0.00 0.00 0.00 99 1009.7
20260510103257 11 76 0.0 0.0 0.00 0.00 0.00 99 1009.8
20260510102752 11 76 0.0 0.0 0.00 0.00 0.00 99 1009.4
20260510102248 11 76 0.0 0.0 0.00 0.00 0.00 99 1009.5
20260510101745 11 76 0.0 0.0 0.00 0.00 0.00 99 1009.5
20260510101244 11 75 0.0 0.0 0.00 0.00 0.00 99 1009.4
20260510100739 11 75 0.0 0.0 0.00 0.00 0.00 99 1009.5
20260510100238 11 76 0.0 0.0 0.00 0.00 0.00 99 1009.6
20260510095733 11 63 0.0 0.0 0.00 0.00 0.00 99 1009.3
20260510095228 11 63 0.0 0.0 0.00 0.00 0.00 99 1009.3
20260510094727 11 63 0.0 0.0 0.00 0.00 0.00 99 1009.5
20260510094223 11 62 0.0 0.0 0.00 0.00 0.00 99 1009.6
20260510093719 11 66 0.0 0.0 0.00 0.00 0.00 99 1009.0
20260510093216 11 70 0.0 0.0 0.00 0.00 0.00 99 1009.0
20260510092712 11 70 0.0 0.0 0.00 0.00 0.00 99 1009.1
20260510092208 11 70 0.0 0.0 0.00 0.00 0.00 99 1008.7
20260510091704 11 70 0.0 0.0 0.00 0.00 0.00 99 1008.7
20260510091200 11 70 0.0 0.0 0.00 0.00 0.00 99 1008.7
20260510090657 11 70 0.0 0.0 0.00 0.00 0.00 99 1008.4
20260510090154 11 70 0.0 0.0 0.00 0.00 0.00 99 1008.4
20260510085649 11 70 0.0 0.0 0.00 0.00 0.00 99 1008.7
20260510085144 11 69 0.0 0.0 0.00 0.00 0.00 99 1008.7
20260510084641 11 76 0.0 0.0 0.00 0.00 0.00 99 1008.7
20260510084137 11 76 0.0 0.0 0.00 0.00 0.00 99 1008.7
20260510083634 11 76 0.0 0.0 0.00 0.00 0.00 99 1008.7
20260510083131 11 76 0.0 0.0 0.00 0.00 0.00 99 1008.9
20260510082627 10 76 0.0 0.0 0.00 0.00 0.00 99 1009.0
20260510082123 11 76 0.0 0.0 0.00 0.00 0.00 99 1008.9
20260510081623 11 75 0.0 0.0 0.00 0.00 0.00 99 1008.8
20260510081120 10 76 0.0 0.0 0.00 0.00 0.00 99 1008.5
20260510080619 10 76 0.0 0.0 0.00 0.00 0.00 99 1008.7
20260510080116 10 73 0.0 0.0 0.00 0.00 0.00 99 1008.9
20260510075608 10 76 0.0 0.0 0.00 0.00 0.00 99 1008.7
20260510075104 10 62 0.0 0.0 0.00 0.00 0.00 99 1008.8
20260510074601 10 63 0.0 0.0 0.00 0.00 0.00 99 1008.5
20260510074056 10 63 0.0 0.0 0.00 0.00 0.00 99 1008.5
20260510073553 10 63 0.0 0.0 0.00 0.00 0.00 99 1008.3
20260510073050 10 62 0.0 0.0 0.00 0.00 0.00 99 1008.5
20260510072547 10 62 0.0 0.0 0.00 0.00 0.00 99 1008.5
20260510072042 10 63 0.0 0.0 0.00 0.00 0.00 99 1008.8
20260510071539 10 67 0.0 0.0 0.00 0.00 0.00 99 1008.5
20260510071037 10 79 0.0 0.0 0.00 0.00 0.00 99 1008.5
20260510070534 10 80 0.0 0.0 0.00 0.00 0.00 99 1008.8
20260510070030 10 62 0.0 0.0 0.00 0.00 0.00 99 1008.8
20260510065527 10 62 0.0 0.0 0.00 0.00 0.00 99 1008.7
20260510065023 10 79 0.0 0.0 0.00 0.00 0.00 99 1008.8
20260510064520 10 73 0.0 0.0 0.00 0.00 0.00 99 1008.8
20260510064016 10 62 0.0 0.0 0.00 0.00 0.00 99 1008.8
20260510063513 10 62 0.0 0.0 0.00 0.00 0.00 99 1008.3
20260510063011 10 63 0.0 0.0 0.00 0.00 0.00 99 1008.4
20260510062506 10 63 0.0 0.0 0.00 0.00 0.00 99 1008.3
20260510062001 10 62 0.0 0.0 0.00 0.00 0.00 99 1008.3
20260510061458 10 62 0.0 0.0 0.00 0.00 0.00 99 1008.5
20260510060955 10 62 0.0 0.0 0.00 0.00 0.00 99 1008.2
20260510060451 10 62 0.0 0.0 0.00 0.00 0.00 99 1008.5
20260510055947 10 62 0.0 0.0 0.00 0.00 0.00 98 1008.4
20260510055443 10 63 0.0 0.0 0.00 0.00 0.00 98 1008.3
20260510054942 10 63 0.0 0.0 0.00 0.00 0.00 98 1008.4
20260510054437 10 62 0.0 0.0 0.00 0.00 0.00 98 1008.5
20260510053932 10 63 0.0 0.0 0.00 0.00 0.00 98 1008.2
20260510053428 11 63 0.0 0.0 0.00 0.00 0.00 98 1008.3
20260510052924 11 63 0.0 0.0 0.00 0.00 0.00 98 1008.1
20260510052420 11 62 0.0 0.0 0.00 0.00 0.00 98 1008.2
20260510051916 11 62 0.0 0.0 0.00 0.00 0.00 97 1008.2
20260510051413 11 63 0.0 0.0 0.00 0.00 0.00 97 1008.1
20260510050909 11 62 0.0 0.0 0.00 0.00 0.00 97 1008.4
20260510050406 11 62 0.0 0.0 0.00 0.00 0.00 97 1008.2
20260510045903 11 62 0.0 0.0 0.00 0.00 0.00 97 1008.2
20260510045400 11 51 0.0 0.0 0.00 0.00 0.00 97 1008.4
20260510044857 11 74 0.0 0.0 0.00 0.00 0.00 97 1008.2
20260510044354 11 74 0.0 0.0 0.00 0.00 0.00 97 1007.9
20260510043851 11 73 0.0 0.0 0.00 0.00 0.00 97 1007.8
20260510043346 11 74 0.0 0.0 0.00 0.00 0.00 96 1007.6
20260510042844 11 74 0.0 0.0 0.00 0.00 0.00 96 1007.5
20260510042340 11 73 0.0 0.0 0.00 0.00 0.00 96 1007.6
20260510041836 11 74 0.0 0.0 0.00 0.00 0.00 96 1007.6
20260510041334 11 73 0.0 0.0 0.00 0.00 0.00 96 1007.7
20260510040831 11 73 0.0 0.0 0.00 0.00 0.00 95 1007.6
20260510040328 11 73 0.0 0.0 0.00 0.00 0.00 95 1007.6
20260510035823 11 73 0.0 0.0 0.00 0.00 0.00 95 1007.5
20260510035320 11 74 0.0 0.0 0.00 0.00 0.00 94 1007.8
20260510034815 12 73 0.0 0.0 0.00 0.00 0.00 94 1007.8
20260510034313 12 73 0.0 0.0 0.00 0.00 0.00 93 1007.6
20260510033809 12 74 0.0 0.0 0.00 0.00 0.00 93 1007.5
20260510033307 12 73 0.0 0.0 0.00 0.00 0.00 93 1007.5
20260510032803 12 73 0.0 0.0 0.00 0.00 0.00 93 1007.4
20260510032259 12 73 0.0 0.0 0.00 0.00 0.00 93 1007.4
20260510031755 12 73 0.0 0.0 0.00 0.00 0.00 93 1007.3
20260510031252 12 73 0.0 0.0 0.00 0.00 0.00 93 1007.4
20260510030750 12 73 0.0 0.0 0.00 0.00 0.00 92 1007.0
20260510030248 12 73 0.0 0.0 0.00 0.00 0.00 92 1007.3
20260510025745 13 73 0.0 0.0 0.00 0.00 0.00 92 1007.0
20260510025243 13 73 0.0 0.0 0.00 0.00 0.00 91 1007.0
20260510024739 13 73 0.0 0.0 0.00 0.00 0.00 91 1007.0
20260510024236 13 73 0.0 0.0 0.00 0.00 0.00 91 1006.7
20260510023732 13 74 0.0 0.0 0.00 0.00 0.00 90 1006.7
20260510023229 13 74 0.0 0.0 0.00 0.00 0.00 90 1006.6
20260510022725 13 73 0.0 0.0 0.00 0.00 0.00 90 1006.8
20260510022225 13 74 0.0 0.0 0.00 0.00 0.00 89 1006.4
20260510021720 13 74 0.0 0.0 0.00 0.00 0.00 89 1006.4
20260510021218 14 73 0.0 0.0 0.00 0.00 0.00 88 1006.2
20260510020713 14 74 0.0 0.0 0.00 0.00 0.00 88 1006.1
20260510020208 15 74 0.0 0.0 0.00 0.00 0.00 88 1006.0
20260510015704 15 74 0.0 0.0 0.00 0.00 0.00 87 1006.0
20260510015201 15 74 0.0 0.0 0.00 0.00 0.00 86 1005.8
20260510014701 15 74 0.0 0.0 0.00 0.00 0.00 86 1006.0
20260510014200 15 73 0.0 0.0 0.00 0.00 0.00 85 1005.6
20260510013700 15 73 0.0 0.0 0.00 0.00 0.00 85 1005.6
20260510013156 15 74 0.0 0.0 0.00 0.00 0.00 84 1005.5
20260510012655 16 73 0.0 0.0 0.00 0.00 0.00 83 1005.5
20260510012151 16 74 0.0 0.0 0.00 0.00 0.00 83 1005.4
20260510011646 16 74 0.0 0.0 0.00 0.00 0.00 82 1005.5
20260510011142 16 73 0.0 0.0 0.00 0.00 0.00 80 1005.4
20260510010638 17 73 0.0 0.0 0.00 0.00 0.00 79 1005.4
20260510010136 17 74 0.0 0.0 0.00 0.00 0.00 78 1005.2
20260510005631 17 63 0.0 0.0 0.00 0.00 0.00 78 1005.5
20260510005129 18 63 0.0 0.0 0.00 0.00 0.00 75 1005.2
20260510004627 18 56 0.0 0.0 0.00 0.00 0.00 73 1005.0
20260510004125 18 63 0.0 0.0 0.00 0.00 0.00 74 1005.2
20260510003621 18 63 0.0 0.0 0.00 0.00 0.00 71 1005.0
20260510003117 19 63 0.0 0.0 0.00 0.00 0.00 68 1004.8
20260510002612 20 63 0.0 0.0 0.00 0.00 0.00 66 1004.8
20260510002109 20 62 0.0 0.0 0.00 0.00 0.00 63 1004.9
20260510001606 21 63 0.0 0.0 0.00 0.00 0.00 60 1005.0
20260510001105 21 63 0.0 0.0 0.00 0.00 0.00 58 1005.1
20260510000605 21 63 0.0 0.0 0.00 0.00 0.00 55 1005.1
20260509235558 22 63 0.0 0.0 0.00 0.00 0.00 49 1005.0
20260509235055 22 63 0.0 0.0 0.00 0.00 0.00 49 1005.1
20260509234551 22 63 0.0 0.0 0.00 0.00 0.00 49 1005.0
20260509234049 22 63 0.0 0.0 0.00 0.00 0.00 47 1005.1
20260509233547 23 63 0.0 0.0 0.00 0.00 0.00 50 1005.0
20260509233044 23 63 0.0 0.0 0.00 0.00 0.00 52 1005.1
20260509232540 23 63 0.0 0.0 0.00 0.00 0.00 46 1005.1
20260509232037 24 63 0.0 0.0 0.00 0.00 0.00 46 1005.2